Regional Weather Roundup
Issued by NWS

Home | Current Version | Previous Version | Graphics & Text | Print | Product List | Glossary On
Versions: 1 2 3 4 5 6 7 8 9 10 11 12 13 14 15 16 17 18 19 20 21 22 23 24 25 26 27 28 29 30 31 32 33 34 35 36 37 38 39 40 41 42 43 44 45 46
000
ASUS45 KTFX 031910
RWRMT
MONTANA REGIONAL WEATHER ROUNDUP
NATIONAL WEATHER SERVICE GREAT FALLS MT
100 PM MDT MON AUG 03 2015

NOTE: "FAIR" INDICATES FEW OR NO CLOUDS BELOW 12000 FEET WITH NO
SIGNIFICANT WEATHER AND/OR OBSTRUCTIONS TO VISIBILITY.

MTZ001>007-043-032000-
WEST OF THE DIVIDE

CITY           SKY/WX    TMP DP  RH WIND       PRES   REMARKS
KALISPELL      PTCLDY    87  35  15 E6        29.82F SMOKE
MISSOULA       MOSUNNY   79  37  22 S8        29.86F
BUTTE          MOSUNNY   83  37  19 SE9       30.01F
MULLAN PASS    MOSUNNY   79  33  19 VRB3      30.04F
DEER LODGE       N/A     84  45  24 E3        29.97F
EUREKA           N/A     84  39  20 CALM      29.81F
HAMILTON         N/A     81  45  28 NW2       29.86F
LIBBY            N/A     84  32  15 W3        29.79F
RONAN            N/A     84  43  23 W5        29.91F
$$

MTZ008-052>055-032000-
SOUTHWEST MONTANA

CITY           SKY/WX    TMP DP  RH WIND       PRES   REMARKS
BOZEMAN        PTSUNNY   81  49  32 VRB5      29.96F
DILLON         PTSUNNY   77  47  34 N5        30.00F
W YELLOWSTONE  CLOUDY    68  45  42 S12G17    30.17R
THREE FORKS      N/A     83  39  20 NW2       29.96F
$$

MTZ009-010-012-014-046-048-049-054-032000-
EAST SLOPES AND CENTRAL MONTANA

CITY           SKY/WX    TMP DP  RH WIND       PRES   REMARKS
CUT BANK       SUNNY     82  47  29 SE9       29.91F
GREAT FALLS    MOSUNNY   86  44  23 VRB7      29.90F
MALMSTROM AFB  MOSUNNY   85  45  24 E5G14     29.90F
HELENA         MOSUNNY   87  47  24 CALM      29.90F
$$

MTZ011-013-016-021-045-047-050-051-032000-
NORTH CENTRAL MONTANA

CITY           SKY/WX    TMP DP  RH WIND       PRES   REMARKS
HAVRE          SUNNY     89  51  27 E17       29.87F
LEWISTOWN      SUNNY     87  51  28 E18       29.96F
CHINOOK          N/A     84  55  37 E14       29.89F
FORT BENTON      N/A     88  52  29 E8G16     29.86F
$$

MTZ017>020-022>027-061-062-032000-
NORTHEAST MONTANA

CITY           SKY/WX    TMP DP  RH WIND       PRES   REMARKS
GLASGOW        SUNNY     82  47  29 SE13      29.97F
JORDAN           N/A     87  45  23 SE9       29.95F
SIDNEY         SUNNY    N/A N/A N/A SE3       29.99F
WOLF POINT     SUNNY     83  49  30 SE5       29.98F
MALTA            N/A     86  52  30 E10       29.91F
POPLAR           N/A     82  48  30 E8        29.99F
SCOBEY           N/A     79  49  34 S7        30.01F
$$

MTZ028>42-056>058-032000-
SOUTHCENTRAL AND SOUTHEAST MONTANA

CITY           SKY/WX    TMP DP  RH WIND       PRES   REMARKS
BAKER          SUNNY     84  48  28 E9        30.02F
BILLINGS       PTSUNNY   83  50  31 NE8       29.96F
LIVINGSTON     MOSUNNY   79  44  28 E13       29.99F
MILES CITY     SUNNY     87  49  26 SE7G18    29.95F
FORSYTH          N/A     86  46  25 E9G17     29.94F
LAUREL           N/A     81  49  32 N6        29.96F
ROUNDUP          N/A     87  45  23 E12       29.88F
$$

REGIONAL REPORTS...DAKOTAS

CITY           SKY/WX    TMP DP  RH WIND       PRES   REMARKS
WILLISTON      SUNNY     80  46  30 NE6       30.01F
MINOT          SUNNY     76  43  30 MISG      30.00F
DICKINSON      SUNNY     78  50  37 VRB3      30.01F
BEACH          FAIR      81  48  32 E6        30.02F
CROSBY         FAIR      77  48  36 NW6       30.02F
BISMARCK       SUNNY     78  47  33 VRB7      30.01F
GRAND FORKS    MOSUNNY   75  49  39 NW12G23   29.93S
FARGO          SUNNY     78  49  35 NW18      29.93F
BUFFALO SD       N/A     82  51  34 E9        29.96F
RAPID CITY     SUNNY     82  57  42 SE10G17   30.02F
$$

REGIONAL REPORTS...WYOMING/IDAHO/WASHINGTON

CITY           SKY/WX    TMP DP  RH WIND       PRES   REMARKS
GILLETTE       MOSUNNY   83  55  38 SE15      30.04F
SHERIDAN       MOSUNNY   88  52  29 E14G21    29.98F
BUFFALO WY     PTSUNNY   83  50  31 S10       30.06F
CODY           CLOUDY    75  52  43 NE6       30.05S
YELLOWSTONE LA   N/A     71  41  33 VRB5      30.24F
IDAHO FALLS    LGT RAIN  73  57  57 S14G23    30.05S
SALMON         PTSUNNY   79  48  34 SW5       29.86F
BOISE          CLOUDY    86  46  24 NE3       29.93S
SPOKANE        CLOUDY    81  40  23 SW14      29.83F
$$

REGIONAL REPORTS...ALBERTA

CITY           SKY/WX    TMP DP  RH WIND       PRES   REMARKS
EDMONTON       SUNNY     79  57  47 S16G24    29.82F
CALGARY        CLOUDY    82  52  34 S9        29.87F
MEDICINE HAT   CLOUDY    91  46  21 SE12G22   29.85F
WATERTON GATE    N/A     84  52  32 N9          N/A
CARDSTON         N/A     84  50  30 NE2         N/A
MILK RIVER       N/A     84  48  28 S13G20      N/A
ONEFOUR          N/A     84  46  26 SE14G20     N/A
$$

REGIONAL REPORTS...SASKATCHEWAN

CITY           SKY/WX    TMP DP  RH WIND       PRES   REMARKS
SWIFT CURRENT  MOSUNNY   77  54  44 SE10G18   29.99F
REGINA         PTSUNNY   79  54  41 W9        30.02S
SASKATOON      PTSUNNY   79  46  31 SE6       30.01S
CYPRESS HILLS    N/A     72  48  43 SE13G18     N/A
VAL MARIE        N/A     79  48  34 SE13        N/A
ROCKGLEN         N/A     77  50  38 SE5         N/A
ASSINIBOIA       N/A     81  57  44 SE14G22     N/A
$$



USA.gov is the U.S. government's official web portal to all federal, state and local government web resources and services.